Weather History for KTPA - October, 2014

Change the Weather History Date:

Sunday, October 12, 2014

  Actual Average Record
Temperature  
Mean Temperature 81 °F 77 °F  
Max Temperature 89 °F 85 °F 92 °F (1959)
Min Temperature 72 °F 69 °F 55 °F (1906)
Degree Days  
Heating Degree Days 0 0  
Month to date heating degree days 0 0  
Since 1 July heating degree days 0 0  
Cooling Degree Days 16 12  
Month to date cooling degree days 167 161  
Year to date cooling degree days 3173 3177  
Growing Degree Days 30 (Base 50)    
Moisture  
Dew Point 67 °F    
Average Humidity 66    
Maximum Humidity 90    
Minimum Humidity 41    
Precipitation  
Precipitation 0.00 in 0.07 in 2.22 in (1900)
Month to date precipitation 0.57 1.15  
Year to date precipitation 50.09 41.17  
Sea Level Pressure  
Sea Level Pressure 30.04 in    
Wind  
Wind Speed 4 mph (ESE)    
Max Wind Speed 15 mph    
Max Gust Speed 23 mph    
Visibility 10 miles    
Events      
T = Trace of Precipitation, MM = Missing Value Source: NWS Daily Summary

Daily Weather History Graph

Daily Weather History Graph

Search for Another Location

Airport or City:

Trip Planner

Search our weather history database for the weather conditions in past years. The results will help you decide how hot, cold, wet, or windy it might be!

Date:

Astronomy

Oct. 12, 2014 Rise Set
Actual Time 7:28 AM EDT 7:04 PM EDT
Civil Twilight 7:05 AM EDT 7:27 PM EDT
Nautical Twilight 6:37 AM EDT 7:54 PM EDT
Astronomical Twilight 6:10 AM EDT 8:21 PM EDT
Moon 10:37 PM EDT (10/12) 11:33 AM EDT (10/12)
Length of Visible Light 12h 22m
Length of Day
11h 35m
Waning Gibbous, 79% of the Moon is Illuminated
Oct 12
Waning Gibbous
Oct 15
Last Quarter
Oct 23
New
Oct 30
First Quarter
Nov 6
Full

Hourly Weather History & Observations

Time (EDT) Temp. Heat Index Dew Point Humidity Pressure Visibility Wind Dir Wind Speed Gust Speed Precip Events Conditions
12:53 AM 77.0 °F - 68.0 °F 74% 30.04 in 10.0 mi ESE 4.6 mph - N/A   Partly Cloudy
1:53 AM 75.9 °F - 68.0 °F 76% 30.04 in 10.0 mi SE 3.5 mph - N/A   Scattered Clouds
2:53 AM 75.0 °F - 68.0 °F 79% 30.03 in 10.0 mi Calm Calm - N/A   Scattered Clouds
3:53 AM 73.9 °F - 68.0 °F 82% 30.02 in 10.0 mi Calm Calm - N/A   Partly Cloudy
4:53 AM 73.4 °F - 68.0 °F 83% 30.02 in 10.0 mi Calm Calm - N/A   Partly Cloudy
5:53 AM 73.0 °F - 68.0 °F 84% 30.02 in 10.0 mi Calm Calm - N/A   Clear
6:53 AM 72.0 °F - 68.0 °F 87% 30.04 in 10.0 mi Variable 3.5 mph - N/A   Clear
7:53 AM 73.0 °F - 68.0 °F 84% 30.05 in 10.0 mi Variable 3.5 mph - N/A   Clear
8:53 AM 75.9 °F - 69.1 °F 79% 30.07 in 10.0 mi Variable 3.5 mph - N/A   Clear
9:53 AM 81.0 °F 84.1 °F 69.1 °F 67% 30.08 in 10.0 mi Variable 3.5 mph - N/A   Clear
10:53 AM 82.9 °F 86.5 °F 69.1 °F 63% 30.08 in 10.0 mi SE 4.6 mph - N/A   Partly Cloudy
11:53 AM 84.9 °F 88.8 °F 69.1 °F 59% 30.07 in 10.0 mi Variable 5.8 mph - N/A   Partly Cloudy
12:53 PM 84.9 °F 87.1 °F 66.0 °F 53% 30.05 in 10.0 mi East 3.5 mph - N/A   Scattered Clouds
1:53 PM 88.0 °F 89.6 °F 64.9 °F 46% 30.04 in 10.0 mi North - - N/A   Scattered Clouds
2:53 PM 87.1 °F 88.3 °F 64.0 °F 46% 30.02 in 10.0 mi ESE 4.6 mph - N/A   Mostly Cloudy
3:53 PM 89.1 °F 90.0 °F 63.0 °F 42% 30.01 in 10.0 mi East 4.6 mph - N/A   Scattered Clouds
4:53 PM 87.8 °F 88.5 °F 62.6 °F 43% 30.00 in 10.0 mi ESE 5.8 mph - N/A   Partly Cloudy
5:53 PM 88.0 °F 89.3 °F 64.0 °F 45% 30.00 in 10.0 mi Variable 4.6 mph - N/A   Partly Cloudy
6:53 PM 86.0 °F 87.3 °F 64.0 °F 48% 30.00 in 10.0 mi East 4.6 mph - N/A   Partly Cloudy
7:53 PM 86.0 °F 87.3 °F 64.0 °F 48% 30.02 in 10.0 mi Calm Calm - N/A   Partly Cloudy
8:53 PM 84.0 °F 86.3 °F 66.0 °F 55% 30.03 in 10.0 mi East 8.1 mph 17.3 mph N/A   Scattered Clouds
9:53 PM 81.0 °F 83.3 °F 66.9 °F 62% 30.05 in 10.0 mi East 9.2 mph 18.4 mph N/A   Partly Cloudy
10:53 PM 80.1 °F 82.3 °F 66.9 °F 64% 30.06 in 10.0 mi East 10.4 mph 18.4 mph N/A   Partly Cloudy
11:53 PM 78.1 °F - 66.9 °F 68% 30.08 in 10.0 mi Variable 5.8 mph - N/A   Clear